This is the latest recevied weather packets stored in our database for station/object DG6YGE-6. If no packets are shown the sender has not sent any weather packets the latest 10 day(s).
| Time | Temp. | Humidity | Pressure | Rain* | Wind** | Luminosity | Snow |
|---|---|---|---|---|---|---|---|
| 1777891754 | 20.56° C | 67% | 1012.1 hPa | 0 mm | - | 415 W/m² | - |
| 1777891154 | 20.56° C | 66% | 1012.1 hPa | 0 mm | - | 686 W/m² | - |
| 1777890554 | 20° C | 70% | 1012.2 hPa | 0 mm | - | 695 W/m² | - |
| 1777889954 | 19.44° C | 69% | 1012.2 hPa | 0 mm | - | 495 W/m² | - |
| 1777889355 | 19.44° C | 69% | 1012.1 hPa | 0 mm | - | 383 W/m² | - |
| 1777888754 | 19.44° C | 69% | 1012.1 hPa | 0 mm | - | 377 W/m² | - |
| 1777888154 | 19.44° C | 70% | 1012.3 hPa | 0 mm | - | 273 W/m² | - |
| 1777887554 | 19.44° C | 67% | 1012.2 hPa | 0 mm | - | 618 W/m² | - |
| 1777886954 | 19.44° C | 71% | 1012.3 hPa | 0 mm | - | 567 W/m² | - |
| 1777886354 | 18.89° C | 70% | 1012.2 hPa | 0 mm | - | 862 W/m² | - |
| 1777885754 | 18.33° C | 73% | 1012.3 hPa | 0 mm | - | 770 W/m² | - |
| 1777885155 | 18.33° C | 74% | 1012.2 hPa | 0 mm | - | 257 W/m² | - |
| 1777884554 | 18.33° C | 73% | 1012.3 hPa | 0 mm | - | 208 W/m² | - |
| 1777883953 | 18.33° C | 74% | 1012.3 hPa | 0 mm | - | 500 W/m² | - |
| 1777883354 | 18.89° C | 73% | 1012.3 hPa | 0 mm | - | 417 W/m² | - |
| 1777882753 | 18.89° C | 74% | 1012.3 hPa | 0 mm | - | 483 W/m² | - |
| 1777882153 | 17.78° C | 77% | 1012.3 hPa | 0 mm | - | 660 W/m² | - |
| 1777881554 | 17.22° C | 79% | 1012.2 hPa | 0 mm | - | 514 W/m² | - |
| 1777880954 | 16.67° C | 80% | 1012.2 hPa | 0 mm | - | 340 W/m² | - |
| 1777880353 | 16.67° C | 80% | 1012.2 hPa | 0 mm | - | 301 W/m² | - |
| 1777879753 | 16.11° C | 81% | 1012.2 hPa | 0 mm | - | 263 W/m² | - |
| 1777879154 | 15.56° C | 83% | 1012.2 hPa | 0 mm | - | 259 W/m² | - |
| 1777878553 | 15.56° C | 83% | 1012 hPa | 0 mm | - | 287 W/m² | - |
| 1777877954 | 15.56° C | 83% | 1011.9 hPa | 0 mm | - | 104 W/m² | - |
| 1777877353 | 15° C | 84% | 1011.9 hPa | 0 mm | - | 383 W/m² | - |
* Rain latest hour (hover to see other rain measurements)
** Current wind speed in m/s (hover to see current wind gust speed)